Location: Lanoux
(43.1180°N, 1.4255°E)
Time: 14:00:11
(UTC+00:00)

Okean 1-7 Rocket - Pass Details

Date: 13 December 2025
Orbit: 610 x 643 km, 82.5° (Epoch: 19 January)

Event Time Altitude Azimuth Distance (km) Brightness Sun altitude
Rises 17:25:38 0° 348° (NNW) 2,895 6.9 -11.6°
Reaches altitude 10° 17:27:54 10° 345° (NNW) 1,981 6.1 -12.0°
Maximum altitude 17:32:12 61° 265° (W) 699 4.1 -12.8°
Drops below altitude 10° 17:36:28 10° 186° (S) 1,958 6.5 -13.5°
Sets 17:38:41 0° 182° (S) 2,857 7.3 -13.9°
